Home   Weather   Meyrin   Past weeks

Flag for Switzerland Past Weather in Meyrin, Geneva, Switzerland — Yesterday and Last 2 Weeks

Now
39 °F

Passing clouds.


Feels Like: 37 °F
Forecast: 31 / 48 °F
Wind: 3 mph from Northeast

Location: Geneva Cointrin Airport

Current Time: Apr 28, 2017 at 1:03:46 am

Latest Report: Apr 28, 2017 at 12:20 am


Visibility: N/A

Pressure: 29.92 "Hg

Humidity: 93%

Dew Point: 37 °F

Location of MeyrinLocation

Past Weather in Meyrin — Graph

°F

Meyrin Temperature Yesterday

Maximum temperature yesterday: 43 °F (at 2:20 pm)
Minimum temperature yesterday: 37 °F (at 9:50 pm)
Average temperature yesterday: 41 °F

High & Low Weather Summary for the Past Weeks

 TemperatureHumidityPressure
High72 °F (Apr 13, 3:20 pm)100% (Apr 25, 7:50 pm)30.45 "Hg (Apr 25, 7:50 pm)
Low32 °F (Apr 22, 5:20 am)14% (Apr 21, 6:50 pm)29.68 "Hg (Apr 25, 8:50 pm)
Average49 °F60%30.09 "Hg
* Reported Apr 12 11:20 pm — Apr 27 11:50 pm, Meyrin, Weather by CustomWeather, © 2017

Note: Actual official high and low records may vary slightly from our data, if they occured in-between our weather recording intervals... More about our weather records

Advertising

Meyrin Weather History for the Previous 24 Hours

Scroll right to see more
 ConditionsComfort  
Time TempWeatherWind HumidityBarometerVisibility
11:50 pm
Thu, Apr 27
39 °FLight rain. Passing clouds.3 mph93%29.92 "HgN/A
11:20 pm39 °FLight rain. Passing clouds.3 mph93%29.92 "HgN/A
10:50 pm39 °FSprinkles. Passing clouds.6 mph93%29.92 "HgN/A
10:20 pm37 °FSprinkles. Passing clouds.7 mph100%29.92 "Hg5 mi
9:50 pm37 °FRain showers. Passing clouds.6 mph93%29.92 "Hg2 mi
8:50 pm41 °FLight rain. Passing clouds.2 mph87%29.92 "HgN/A
8:20 pm41 °FLight rain. Partly sunny.3 mph81%29.92 "HgN/A
7:50 pm41 °FLight rain. Partly sunny.9 mph81%29.92 "HgN/A
7:20 pm43 °FLight rain. Broken clouds.3 mph76%29.92 "HgN/A
6:50 pm43 °FLight rain. Partly sunny.5 mph76%29.92 "HgN/A
6:20 pm43 °FMostly cloudy.6 mph76%29.92 "HgN/A
5:50 pm43 °FMostly cloudy.3 mph76%29.92 "HgN/A
5:20 pm43 °FMostly cloudy.6 mph76%29.92 "HgN/A
4:50 pm43 °FMore clouds than sun.7 mph76%29.92 "HgN/A
4:20 pm43 °FLight rain. Broken clouds.8 mph76%29.92 "HgN/A
3:50 pm43 °FBroken clouds.9 mph76%29.92 "HgN/A
3:20 pm43 °FLight rain. Broken clouds.7 mph76%29.95 "HgN/A
2:50 pm43 °FBroken clouds.7 mph71%29.95 "HgN/A
2:20 pm43 °FScattered showers. Broken clouds.8 mph76%29.95 "HgN/A
1:50 pm41 °FMore clouds than sun.8 mph76%29.95 "HgN/A
1:20 pm41 °FScattered showers. Broken clouds.7 mph76%29.95 "HgN/A
12:50 pm41 °FScattered showers. Broken clouds.6 mph81%29.95 "HgN/A
12:20 pm41 °FSprinkles. Mostly cloudy.8 mph76%29.98 "HgN/A
11:50 am41 °FScattered showers. Mostly cloudy.8 mph81%29.95 "HgN/A
11:20 am41 °FScattered showers. Mostly cloudy.8 mph81%29.95 "HgN/A
10:50 am41 °FLight rain. Mostly cloudy.8 mph81%29.95 "HgN/A
10:20 am41 °FScattered showers. Broken clouds.7 mph81%29.95 "HgN/A
9:50 am39 °FBroken clouds.8 mph87%29.95 "HgN/A
9:20 am39 °FBroken clouds.9 mph87%29.95 "HgN/A
8:50 am41 °FScattered showers. Broken clouds.5 mph87%29.95 "HgN/A
8:20 am41 °FScattered showers. Partly sunny.6 mph87%29.95 "HgN/A
7:50 am41 °FScattered showers. Partly sunny.2 mph87%29.92 "HgN/A
7:20 am41 °FPartly sunny.2 mph93%29.92 "HgN/A
6:50 am39 °FScattered showers. Mostly cloudy.3 mph93%29.92 "HgN/A
6:20 am39 °FMostly cloudy.1 mph93%29.92 "HgN/A
5:50 am39 °FPartly cloudy.1 mph93%29.92 "HgN/A
5:20 am39 °FPassing clouds.2 mph93%29.92 "HgN/A
4:50 am39 °FPassing clouds.3 mph100%29.92 "HgN/A
4:20 am39 °FOvercast.1 mph100%29.92 "HgN/A
3:50 am39 °FPassing clouds.2 mph100%29.92 "HgN/A
3:20 am41 °FPassing clouds.2 mph87%29.92 "HgN/A
2:50 am41 °FPassing clouds.5 mph87%29.92 "HgN/A
2:20 am41 °FPassing clouds.7 mph87%29.92 "HgN/A
1:50 am41 °FLight rain. Passing clouds.9 mph87%29.92 "HgN/A
1:20 am41 °FLight rain. Partly cloudy.10 mph87%29.92 "HgN/A
Weather by CustomWeather, © 2017

See weather overviewHow to use our weather pages